Wind_Speed
47 45 43 42 40 38 36 34 31 30 29 28 26 25 24 23 23 23 23 22 23 24 24 25 27 28 30 31 31 32 33 34 35 37 38 40 41 40
52 51 48 46 45 42 40 37 34 32 30 30 28 26 25 24 23 23 23 23 22 22 23 24 25 27 29 30 30 31 32 33 33 34 35 36 37 38
58 56 54 51 49 46 43 41 37 34 32 31 30 28 26 25 24 23 23 23 22 22 23 24 24 24 26 27 28 29 30 31 31 32 33 33 34 35
62 61 59 56 53 50 47 44 41 37 34 32 31 29 27 25 24 24 23 23 22 22 22 22 23 24 24 25 26 25 26 27 28 29 30 31 33 34
66 64 62 60 57 54 50 47 44 41 37 34 32 30 28 26 25 24 23 22 22 21 22 22 23 23 23 23 24 24 24 25 26 27 28 29 29 31
70 68 65 63 60 57 54 50 47 43 40 37 34 31 29 27 25 24 23 22 21 21 21 22 22 22 22 22 23 23 23 23 24 25 25 26 27 28
72 70 67 64 61 59 56 52 49 46 43 39 35 32 30 28 25 24 24 22 21 21 21 21 22 22 23 22 23 23 23 23 23 24 25 25 26 27
68 69 67 65 61 59 57 54 51 48 44 41 37 34 31 29 27 25 24 23 22 22 22 22 21 22 23 23 23 23 23 23 23 23 24 24 25 26
57 62 65 64 61 59 57 55 52 49 45 42 38 35 32 30 28 26 25 24 22 22 22 21 21 22 22 22 22 22 22 22 23 23 23 24 24 24
44 51 58 61 60 58 56 54 52 49 46 43 39 36 34 31 28 27 25 24 22 22 22 21 20 20 21 21 22 22 21 21 21 21 21 21 21 21
36 41 48 54 57 57 55 53 52 49 47 43 40 37 35 32 29 27 25 23 22 21 21 20 20 20 20 21 21 21 21 21 21 21 20 20 20 20
33 35 40 46 51 54 54 52 51 48 46 44 41 38 35 32 29 27 25 24 23 22 21 21 20 20 20 20 20 20 19 19 19 19 18 18 18 18
31 32 35 39 45 49 51 51 50 48 46 44 41 38 35 32 30 28 26 24 23 22 22 21 20 20 20 20 19 19 19 18 18 18 17 17 17 16
29 31 33 36 40 45 48 49 50 49 46 44 42 39 35 32 30 28 26 25 24 22 22 22 21 20 20 19 19 18 18 18 17 17 16 16 15 15
29 30 32 34 37 42 46 47 49 48 46 44 41 38 35 32 30 28 27 25 23 22 21 21 20 20 19 19 18 17 17 17 16 16 16 15 15 15
26 29 32 33 36 41 44 47 48 47 45 43 41 38 36 33 31 29 27 25 23 22 21 20 19 19 19 18 18 17 17 16 16 16 16 15 15 15
25 27 30 32 35 40 44 46 47 47 45 42 40 38 35 33 31 29 28 26 24 21 21 20 19 19 19 18 18 18 17 17 17 17 16 16 16 16
24 25 28 32 36 41 44 46 47 46 44 41 39 38 35 33 30 28 26 25 24 22 22 21 20 19 18 18 18 18 18 18 17 17 16 16 16 16
22 24 27 31 37 41 44 44 45 45 43 40 39 37 35 32 30 28 26 25 24 23 22 22 21 20 19 19 19 19 18 18 18 17 17 17 18 19
20 22 26 32 39 41 42 44 44 44 42 40 38 36 34 32 30 28 26 25 25 23 22 22 21 20 20 20 19 19 19 19 19 19 19 19 20 21
19 23 28 34 39 41 42 43 43 42 40 39 37 35 33 31 29 28 27 26 25 23 23 22 22 21 20 20 20 20 20 20 20 20 21 22 23 24
19 23 29 37 38 40 41 43 43 40 38 37 35 34 32 30 28 27 26 26 25 24 23 22 22 21 21 21 21 21 21 21 22 22 24 25 26 27
23 26 31 36 37 39 40 41 40 38 37 35 33 32 30 28 28 27 26 25 24 23 22 22 22 21 21 21 21 21 22 22 23 25 26 28 29 31
Wind_Direction
247 246 246 246 245 246 246 248 252 257 262 266 269 273 278 282 283 286 284 280 275 271 265 259 254 249 247 246 244 243 242 242 242 242 243 244 243 243
244 245 245 245 246 245 246 247 249 253 256 262 267 270 274 278 280 283 282 278 274 271 266 259 256 251 247 246 245 244 242 241 242 243 243 244 244 243
242 242 243 244 244 245 246 246 248 249 252 256 262 267 271 274 277 279 279 277 273 270 265 261 258 254 250 246 245 244 243 242 242 242 241 244 244 243
241 240 240 241 242 243 244 245 246 247 249 251 256 262 267 270 274 276 275 274 270 267 264 261 259 255 253 248 245 244 243 241 240 240 241 242 242 242
240 240 239 239 239 240 241 243 244 245 246 248 252 257 262 266 269 271 271 271 268 266 263 262 259 255 251 248 246 245 245 243 241 241 241 242 244 243
239 238 238 237 237 238 239 240 241 243 244 246 249 252 257 261 265 265 266 265 265 264 263 261 258 253 250 249 248 247 245 245 245 244 243 243 243 244
239 238 237 236 236 236 236 236 238 240 241 243 246 249 252 255 258 259 260 262 262 262 261 260 257 253 250 248 248 247 246 245 246 247 245 244 244 244
239 237 236 235 234 233 233 234 235 236 238 240 242 245 248 250 252 254 255 258 259 260 259 259 255 252 250 248 247 247 246 247 247 246 245 245 245 244
238 236 234 233 232 231 231 231 231 232 234 235 238 240 243 244 247 249 250 253 256 257 257 256 254 251 248 245 245 245 246 246 246 245 244 244 244 243
239 236 234 231 229 228 228 228 228 229 230 231 233 235 237 240 243 245 244 250 254 254 255 253 251 247 245 242 242 243 244 245 245 244 243 242 242 243
240 237 233 230 228 226 225 225 225 225 226 227 228 230 232 235 238 240 242 245 247 248 249 249 246 245 244 242 242 243 246 246 244 242 241 242 242 243
239 235 231 227 225 224 222 221 221 221 222 222 223 225 228 230 233 234 236 238 241 244 245 244 243 242 241 240 241 242 241 238 237 237 237 238 238 239
239 234 229 225 221 220 219 218 217 217 218 218 220 221 223 226 228 229 231 234 238 242 244 243 241 239 239 241 238 238 236 234 233 233 231 230 231 232
235 232 227 221 218 216 214 214 213 213 214 215 216 217 219 221 223 225 227 231 236 241 241 240 239 238 239 239 234 232 231 230 228 226 224 225 228 231
233 229 223 218 216 211 210 210 208 208 210 212 213 213 215 217 219 221 224 229 234 236 237 237 236 235 235 233 230 227 226 223 220 219 220 223 228 232
232 225 219 215 213 209 206 203 202 203 206 208 208 209 211 213 215 219 223 226 229 233 233 233 232 230 230 230 226 224 222 219 218 217 220 224 229 234
227 221 216 214 209 203 198 196 197 199 201 203 204 205 207 209 212 216 220 223 225 228 228 228 229 228 226 225 222 218 216 216 216 220 224 229 234 239
219 216 214 208 201 196 192 191 191 193 197 199 200 201 203 206 210 213 217 220 221 223 222 223 223 220 219 219 216 214 215 217 219 223 229 235 241 247
211 210 204 197 191 188 185 183 185 189 191 194 195 198 201 204 208 211 215 216 217 219 219 219 218 216 216 214 213 215 218 220 225 230 235 242 250 256
200 197 190 187 183 182 181 180 181 184 187 190 193 196 199 203 207 210 211 212 214 215 215 214 214 213 213 214 216 218 222 227 232 238 245 251 257 263
182 178 179 180 178 178 178 179 179 180 184 187 191 193 197 201 204 207 208 209 210 211 211 211 212 213 215 218 220 223 228 234 240 246 253 258 263 268
170 169 170 169 170 173 175 177 177 179 182 185 189 192 195 198 200 202 203 205 208 210 212 213 214 215 218 221 226 230 236 241 248 254 259 264 268 272
159 161 163 165 167 169 171 174 177 179 182 184 187 190 193 196 199 201 203 207 209 211 213 213 216 219 222 226 232 237 243 249 255 261 265 269 272 275
Height
5755 5759 5762 5766 5769 5773 5776 5780 5783 5784 5785 5786 5788 5789 5790 5789 5789 5788 5788 5787 5787 5787 5788 5789 5790 5792 5794 5797 5800 5803 5806 5809 5813 5816 5820 5823 5827 5830
5740 5745 5749 5753 5757 5761 5765 5769 5772 5775 5777 5778 5780 5781 5782 5782 5782 5782 5781 5781 5781 5781 5782 5783 5784 5786 5788 5790 5793 5795 5798 5801 5805 5808 5811 5814 5818 5821
5724 5729 5734 5739 5744 5747 5752 5757 5761 5765 5768 5770 5771 5773 5774 5775 5775 5775 5775 5775 5775 5775 5776 5777 5778 5780 5781 5784 5786 5788 5791 5794 5797 5800 5803 5806 5809 5813
5706 5712 5718 5723 5729 5734 5739 5744 5749 5754 5758 5761 5763 5765 5766 5767 5768 5768 5768 5768 5769 5770 5771 5772 5773 5774 5775 5777 5780 5782 5784 5787 5790 5792 5796 5799 5802 5804
5686 5693 5700 5707 5713 5719 5725 5731 5737 5742 5747 5751 5754 5756 5758 5760 5761 5761 5762 5762 5763 5764 5765 5766 5767 5768 5770 5772 5774 5776 5778 5781 5783 5786 5789 5791 5794 5797
5665 5673 5681 5689 5697 5704 5711 5718 5724 5730 5736 5741 5745 5748 5750 5752 5753 5754 5755 5756 5757 5758 5759 5760 5761 5763 5765 5766 5768 5770 5773 5775 5777 5780 5782 5784 5787 5790
5643 5653 5662 5671 5680 5689 5697 5704 5711 5718 5724 5730 5735 5739 5742 5744 5746 5747 5748 5749 5751 5752 5753 5755 5756 5758 5759 5761 5763 5765 5767 5769 5771 5774 5776 5778 5780 5782
5623 5632 5643 5653 5663 5672 5681 5690 5698 5705 5713 5719 5725 5729 5733 5736 5738 5740 5742 5743 5745 5746 5747 5749 5750 5752 5754 5755 5757 5759 5762 5764 5766 5768 5770 5772 5774 5776
5604 5613 5624 5635 5645 5656 5666 5675 5684 5693 5701 5708 5714 5720 5724 5727 5730 5732 5734 5737 5739 5740 5742 5743 5744 5746 5748 5750 5751 5754 5756 5758 5760 5762 5764 5766 5768 5770
5590 5597 5607 5617 5629 5640 5651 5661 5671 5681 5690 5697 5705 5710 5715 5718 5722 5725 5727 5730 5732 5734 5736 5737 5738 5740 5742 5744 5746 5748 5750 5752 5754 5756 5758 5760 5762 5764
5578 5584 5592 5602 5613 5625 5637 5648 5659 5668 5677 5686 5694 5700 5705 5710 5714 5717 5721 5723 5726 5728 5730 5732 5733 5735 5737 5739 5741 5743 5745 5747 5749 5751 5753 5755 5757 5759
5568 5573 5580 5588 5598 5610 5623 5635 5646 5657 5666 5675 5683 5690 5696 5701 5706 5710 5714 5717 5719 5722 5724 5726 5728 5730 5732 5734 5736 5738 5740 5742 5744 5746 5748 5750 5753 5755
5558 5563 5569 5577 5587 5598 5611 5623 5635 5645 5655 5664 5673 5681 5687 5693 5698 5703 5707 5711 5713 5716 5719 5721 5723 5725 5727 5729 5731 5733 5735 5737 5739 5741 5744 5746 5748 5750
5549 5554 5560 5567 5577 5587 5599 5611 5623 5634 5645 5654 5664 5672 5680 5686 5691 5696 5700 5704 5707 5711 5713 5715 5718 5720 5722 5724 5726 5728 5730 5733 5735 5738 5740 5742 5744 5746
5541 5545 5551 5559 5568 5578 5589 5600 5612 5624 5636 5646 5656 5665 5672 5678 5684 5689 5694 5698 5701 5704 5707 5710 5712 5715 5717 5719 5722 5724 5726 5729 5731 5734 5737 5739 5741 5743
5533 5537 5543 5551 5560 5569 5579 5591 5604 5616 5628 5638 5648 5657 5664 5671 5678 5683 5688 5692 5696 5699 5702 5705 5707 5710 5713 5715 5718 5720 5723 5726 5728 5731 5733 5735 5737 5739
5525 5530 5536 5543 5552 5561 5572 5584 5597 5609 5620 5631 5641 5650 5658 5665 5671 5677 5682 5686 5691 5694 5697 5700 5703 5706 5709 5711 5714 5717 5719 5722 5725 5727 5729 5731 5733 5735
5519 5524 5529 5536 5545 5555 5566 5578 5591 5603 5615 5625 5635 5644 5653 5660 5666 5671 5676 5681 5685 5688 5692 5695 5699 5702 5705 5708 5711 5713 5716 5719 5721 5723 5725 5727 5729 5730
5514 5519 5524 5531 5541 5551 5562 5575 5587 5599 5610 5621 5631 5640 5648 5655 5661 5667 5672 5676 5680 5684 5688 5691 5695 5698 5701 5704 5707 5710 5713 5715 5717 5719 5721 5723 5724 5725
5511 5516 5522 5529 5539 5550 5561 5573 5584 5596 5607 5617 5627 5635 5643 5650 5657 5662 5667 5671 5676 5680 5684 5687 5691 5694 5697 5701 5703 5706 5708 5711 5713 5715 5716 5717 5718 5719
5510 5515 5521 5529 5538 5550 5561 5572 5583 5594 5604 5615 5624 5632 5639 5646 5652 5658 5663 5667 5672 5676 5680 5684 5687 5691 5694 5697 5699 5702 5704 5706 5708 5710 5711 5711 5711 5711
5511 5517 5523 5531 5541 5551 5562 5573 5583 5593 5603 5613 5621 5629 5636 5643 5649 5654 5659 5664 5668 5672 5676 5680 5684 5687 5690 5693 5695 5697 5700 5701 5703 5703 5704 5705 5704 5704
5516 5522 5528 5536 5546 5555 5565 5575 5585 5594 5603 5612 5619 5627 5634 5640 5645 5651 5656 5660 5665 5669 5673 5676 5680 5683 5686 5689 5691 5693 5694 5696 5696 5697 5697 5697 5696 5695